User: anonymous   Login
Location: Unspecified
(0.0000°N, 0.0000°E)
Time: 18:07:54
(UTC+00:00)
Language:

Shinsei - Orbit

View from above orbital plane
View from above orbital plane
View from above satellite
View from above satellite

Ground track
Ground track

The orbit is defined by the following mean orbital elements,

1 05485U          26133.45347609 +.00000000 +00000-0 +52195-4 0 00004
2 05485  32.0544 253.4229 0639380 169.4443 192.0295 12.74249793    05
Epoch (UTC): 13 May 2026 10:53:00
Eccentricity: 0.0639380
inclination: 32.0544°
perigee height: 870 km
apogee height: 1860 km
right ascension of ascending node: 253.4229°
argument of perigee: 169.4443°
revolutions per day: 12.74249793
mean anomaly at epoch: 192.0295°

The dashed part of the orbit path shows where the satellite is in the earth's shadow,  

DLR